Home > Weather > Pirna > Past weeks

Flag for Germany Past Weather in Pirna, Saxony, Germany — Yesterday and Last 2 Weeks

Now
63 °F

Sprinkles. Passing clouds.


Feels Like: 63 °F
Forecast: 58 / 73 °F
Wind: 14 mph from Northwest

Location: Dresden-Klotzsche

Current Time: Jun 26, 2016 at 3:12:53 AM

Latest Report: Jun 26, 2016 at 2:50 AM


Visibility: N/A

Pressure: 29.89 "Hg

Humidity: 94%

Dew Point: 61 °F

Location of PirnaLocation

Past Weather in Pirna — Graph

°F

Pirna Temperature Yesterday

Maximum temperature yesterday: 81 °F (at 10:50 AM)
Minimum temperature yesterday: 66 °F (at 5:20 AM)
Average temperature yesterday: 73 °F

High & Low Weather Summary for the Past Weeks

 TemperatureHumidityPressure
High91 °F (Jun 24, 4:50 PM)100% (Jun 12, 10:20 PM)30.27 "Hg (Jun 12, 10:20 PM)
Low52 °F (Jun 16, 4:50 AM)29% (Jun 24, 2:20 PM)29.50 "Hg (Jun 14, 4:20 PM)
Average65 °F76%29.89 "Hg
* Reported Jun 11 1:20 AM — Jun 26 1:50 AM, Pirna, Weather by CustomWeather, © 2016

Note: Actual official high and low records may vary slightly from our data, if they occured in-between our weather recording intervals... More about our weather records

Advertising

Pirna Weather History for the Previous 24 Hours

Scroll right to see more
 ConditionsComfort  
Time TempWeatherWind HumidityBarometerVisibility
1:50 AM
Sun, Jun 26
64 °FThundershowers. Passing clouds.7 mph100%29.92 "Hg4 mi
1:20 AM66 °FThundershowers. Passing clouds.12 mph94%29.92 "HgN/A
12:50 AM66 °FThundershowers. Partly cloudy.9 mph94%29.89 "HgN/A
12:20 AM68 °FPassing clouds.9 mph94%29.89 "HgN/A
11:50 PM
Sat, Jun 25
68 °FThunderstorms. Partly cloudy.6 mph94%29.83 "Hg4 mi
11:20 PM70 °FThunderstorms. Passing clouds.7 mph88%29.86 "HgN/A
10:50 PM70 °FLight rain. Passing clouds.3 mph88%29.86 "HgN/A
10:20 PM70 °FSunny.6 mph88%29.86 "Hg10 mi
9:50 PM70 °FSunny.5 mph88%29.83 "Hg10 mi
9:20 PM70 °FSunny.5 mph88%29.80 "Hg10 mi
8:50 PM70 °FSunny.6 mph88%29.83 "Hg10 mi
8:20 PM73 °FSunny.3 mph78%29.80 "Hg10 mi
7:50 PM72 °FSunny.2 mph83%29.80 "Hg10 mi
7:20 PM73 °FSunny.2 mph74%29.80 "Hg10 mi
6:50 PM72 °FPassing clouds.3 mph78%29.83 "HgN/A
6:20 PM72 °FPassing clouds.8 mph78%29.83 "HgN/A
5:50 PM73 °FPassing clouds.5 mph78%29.83 "HgN/A
5:20 PM72 °FBroken clouds.12 mph88%29.83 "HgN/A
4:50 PM70 °FThunderstorms. Broken clouds.8 mph94%29.80 "HgN/A
4:20 PM70 °FThunderstorms. Partly sunny.8 mph88%29.83 "HgN/A
3:50 PM73 °FThundershowers. Broken clouds.9 mph83%29.86 "HgN/A
3:20 PM70 °FThunderstorms. Broken clouds.8 mph83%29.83 "HgN/A
2:50 PM79 °FThunderstorms. Broken clouds.7 mph74%29.83 "HgN/A
2:20 PM79 °FPartly sunny.6 mph74%29.83 "HgN/A
1:50 PM81 °FPartly sunny.5 mph74%29.80 "HgN/A
1:20 PM79 °FSprinkles. Partly sunny.3 mph70%29.83 "HgN/A
12:50 PM79 °FThundershowers. Partly sunny.3 mph74%29.86 "HgN/A
12:20 PM81 °FScattered clouds.3 mph70%29.83 "HgN/A
11:50 AM81 °FScattered clouds.3 mph66%29.86 "HgN/A
11:20 AM81 °FSprinkles. Scattered clouds.1 mph70%29.86 "HgN/A
10:50 AM81 °FScattered clouds.2 mph66%29.86 "HgN/A
10:20 AM77 °FSunny.2 mph69%29.86 "Hg10 mi
9:50 AM75 °FPassing clouds.3 mph69%29.86 "HgN/A
9:20 AM75 °FSunny.2 mph69%29.89 "Hg10 mi
8:50 AM73 °FSunny.2 mph74%29.89 "Hg10 mi
8:20 AM72 °FPassing clouds.3 mph78%29.89 "HgN/A
7:50 AM70 °FPassing clouds.3 mph83%29.89 "HgN/A
7:20 AM70 °FPassing clouds.6 mph78%29.89 "HgN/A
6:50 AM70 °FPassing clouds.3 mph83%29.89 "HgN/A
6:20 AM70 °FPassing clouds.2 mph88%29.89 "HgN/A
5:50 AM68 °FPassing clouds.5 mph88%29.89 "HgN/A
5:20 AM66 °FClear.5 mph94%29.92 "Hg10 mi
4:50 AM68 °FPassing clouds.5 mph83%29.92 "HgN/A
4:20 AM68 °FClear.2 mph88%29.92 "Hg10 mi
3:50 AM70 °FClear.2 mph83%29.92 "Hg10 mi
3:20 AM68 °FClear.3 mph88%29.92 "Hg10 mi
Weather by CustomWeather, © 2016

See weather overviewHow to use our weather pages